Location: Slave Lake
(55.2830°N, 114.7830°W)
Time: 06:59:04
(UTC-06:00)

Amateur Radio Satellites - All Passes

Search period start: 25 May 2016 06:29
Search period end: 26 May 2016 06:29
Location: Slave Lake, 55.2830°N, 114.7830°W

Satellite Date Start Highest point End Downlink Frequencies (MHz)
Time Altitude Azimuth
GONETS M04 25 May 06:40:48 06:45:04 14° 28° (NNE) 06:49:19
YUBILEINY 25 May 06:42:19 06:48:57 25° 285° (WNW) 06:55:37 435.215
Gurwin Techsat 1B 25 May 06:42:24 06:44:47 13° 318° (NW) 06:47:11 435.225
HORYU 2 25 May 06:50:21 06:54:48 84° 103° (ESE) 06:59:14 437.375
RS-15 25 May 06:50:28 06:55:39 14° 271° (W) 07:00:50 29.354- 29.394
CUTE-I 25 May 06:51:20 06:55:03 19° 87° (E) 06:58:46 437.470
CUBESAT XI-V 25 May 06:52:09 06:56:28 36° 264° (W) 07:00:51 437.345
SO-50 25 May 06:53:10 06:57:21 27° 2° (N) 07:01:28 436.795
STRAND 1 25 May 07:01:16 07:06:07 45° 63° (ENE) 07:10:59 437.568
AO-85 25 May 07:16:35 07:20:35 21° 114° (ESE) 07:24:29 145.980
ITAMSAT 1 25 May 07:17:36 07:20:15 14° 316° (NW) 07:22:55 435.822/435.867
NOAA 18 25 May 07:18:53 07:23:48 33° 95° (E) 07:28:43 137.9125
AO-7 25 May 07:27:48 07:35:41 48° 308° (NW) 07:43:34 29.400- 29.500
JAS-2 25 May 07:31:12 07:31:44 10° 347° (NNW) 07:32:16 435.910
Cosmos 2504 25 May 07:34:02 07:41:09 34° 278° (W) 07:48:37 435.465 / 435.565
BRITE-PL 25 May 07:35:46 07:40:58 45° 96° (E) 07:45:45 437.365/2234.400
DOVE 4 25 May 07:41:33 07:43:52 14° 83° (E) 07:46:07 437.250
Cubesat XI-IV 25 May 07:43:19 07:48:26 43° 98° (E) 07:53:31 437.490
Cosmos 2491 25 May 07:45:30 07:53:21 34° 304° (NW) 08:01:11 435.465 / 435.565
NOAA 15 25 May 07:48:41 07:53:59 62° 103° (ESE) 07:59:14 137.62
LilacSat-2 25 May 07:50:53 07:54:32 45° 99° (E) 07:58:11 437.200
HO-68 25 May 08:02:04 08:05:31 14° 79° (E) 08:08:58 435.675
PRISM 25 May 08:08:16 08:12:04 36° 64° (ENE) 08:15:55 437.425
GOMX 1 25 May 08:14:58 08:19:47 48° 98° (E) 08:24:14 467.674
HORYU 2 25 May 08:27:46 08:30:52 19° 306° (NW) 08:33:58 437.375
Cosmos 2499 25 May 08:29:41 08:36:13 25° 49° (NE) 08:43:00 435.465 / 435.565
CUTE-I 25 May 08:30:29 08:35:53 90° 109° (ESE) 08:41:15 437.470
CINEMA 3 25 May 08:32:37 08:34:35 13° 84° (E) 08:36:32 145.822/145.860
AIST 1 25 May 08:32:50 08:36:48 32° 67° (ENE) 08:40:44
SO-50 25 May 08:34:17 08:38:54 42° 26° (NNE) 08:43:23 436.795
GONETS M04 25 May 08:37:24 08:45:21 36° 58° (ENE) 08:53:12
STRAND 1 25 May 08:40:43 08:45:25 37° 264° (W) 08:50:10 437.568
M-CUBED/EXP-1 PRIME 25 May 08:46:01 08:46:54 11° 93° (E) 08:47:46 437.505
AO-85 25 May 08:55:03 09:00:30 80° 135° (SE) 09:05:44 145.980
NOAA 18 25 May 08:59:25 09:04:45 55° 295° (WNW) 09:10:05 137.9125
ANTELSAT 25 May 09:01:58 09:03:45 12° 49° (NE) 09:05:31 437.575/2403.000
JAS-2 25 May 09:12:45 09:13:27 10° 13° (NNE) 09:14:09 435.910
BRITE-PL 25 May 09:14:23 09:19:23 38° 298° (WNW) 09:24:03 437.365/2234.400
CANX-2 25 May 09:16:03 09:19:56 33° 95° (E) 09:23:50 2200.000
DOVE 4 25 May 09:17:47 09:22:27 84° 107° (ESE) 09:26:47 437.250
AO-7 25 May 09:20:55 09:26:42 21° 333° (NNW) 09:32:29 29.400- 29.500
Cubesat XI-IV 25 May 09:23:32 09:28:33 42° 298° (WNW) 09:33:33 437.490
SEEDS 25 May 09:24:24 09:28:03 27° 93° (E) 09:31:43 437.485
LilacSat-2 25 May 09:25:37 09:28:40 23° 299° (WNW) 09:31:42 437.200
NOAA 15 25 May 09:28:54 09:33:30 30° 303° (WNW) 09:38:05 137.62
Oscar 11 25 May 09:38:21 09:40:00 12° 84° (E) 09:41:41 145.826/435.025
CUBEBUG 2 25 May 09:39:41 09:42:44 19° 90° (E) 09:45:45 437.445
PRISM 25 May 09:43:37 09:47:26 34° 263° (W) 09:51:16 437.425
CUTE 1.7 + AOD 2 25 May 09:43:42 09:47:54 51° 100° (E) 09:52:05 437.475
ZACube-1 25 May 09:47:06 09:48:49 12° 85° (E) 09:50:33 437.345
HO-68 25 May 09:47:53 09:54:57 56° 102° (ESE) 10:01:59 435.675
Cosmos 2491 25 May 09:49:50 09:53:51 13° 335° (NNW) 09:57:51 435.465 / 435.565
GOMX 1 25 May 09:53:18 09:57:44 32° 300° (WNW) 10:01:52 467.674
UNISAT 6 25 May 09:54:45 09:58:30 29° 61° (ENE) 10:02:12 437.425
TIGRISAT 25 May 10:03:06 10:06:57 32° 63° (ENE) 10:10:46 435.000
CINEMA 3 25 May 10:08:13 10:12:30 87° 102° (ESE) 10:16:39 145.822/145.860
AIST 1 25 May 10:10:26 10:14:30 38° 268° (W) 10:18:31
CUTE-I 25 May 10:11:18 10:15:21 22° 308° (NW) 10:19:24 437.470
UWE-3 25 May 10:13:38 10:17:15 28° 94° (E) 10:20:52 435.000/436.395/437.385
POPSAT HIP 1 25 May 10:13:52 10:15:49 13° 50° (NE) 10:17:45 437.405
AUBIESAT-1 25 May 10:14:21 10:17:46 75° 112° (ESE) 10:21:03 437.475
QB50P1 25 May 10:14:27 10:16:28 13° 51° (NE) 10:18:29 145.935-145.965
SO-50 25 May 10:14:55 10:19:39 61° 229° (SW) 10:24:13 436.795
COMPASS 1 25 May 10:15:18 10:19:29 58° 101° (E) 10:23:39 437.405
QB50P2 25 May 10:15:34 10:17:46 14° 51° (NE) 10:19:57 145.880/145.840
POLYITAN 1 25 May 10:17:58 10:20:12 14° 52° (NE) 10:22:25 437.675
M-CUBED/EXP-1 PRIME 25 May 10:18:41 10:22:06 81° 293° (WNW) 10:25:22 437.505
AAUSAT CUBESAT 2 25 May 10:20:32 10:24:40 54° 100° (E) 10:28:48 437.432
Cosmos 2499 25 May 10:22:36 10:30:58 72° 74° (ENE) 10:39:46 435.465 / 435.565
FUNcube-1 25 May 10:25:26 10:28:54 25° 93° (E) 10:32:22 145.935
NANOSAT C BR1 25 May 10:33:28 10:36:16 17° 55° (NE) 10:39:03 145.865
GONETS M04 25 May 10:34:20 10:43:03 76° 263° (W) 10:51:42
ANTELSAT 25 May 10:35:23 10:39:41 60° 70° (ENE) 10:43:56 437.575/2403.000
PCSat 25 May 10:35:49 10:39:23 18° 107° (ESE) 10:42:56 145.827
AO-85 25 May 10:36:24 10:41:27 40° 336° (NNW) 10:46:16 145.980
NOAA 18 25 May 10:41:19 10:44:24 15° 317° (NW) 10:47:28 137.9125
O/OREOS (USA 219) 25 May 10:46:50 10:50:42 28° 107° (ESE) 10:54:32 437.305
JAS-2 25 May 10:50:28 10:55:40 20° 38° (NE) 11:00:57 435.910
CANX-2 25 May 10:51:54 10:55:52 38° 295° (WNW) 10:59:50 2200.000
BRITE-PL 25 May 10:55:03 10:56:26 11° 321° (NW) 10:57:48 437.365/2234.400
DOVE 4 25 May 10:56:21 10:59:34 19° 307° (NW) 11:02:39 437.250
SEEDS 25 May 10:59:54 11:03:57 45° 293° (WNW) 11:08:01 437.485
Cubesat XI-IV 25 May 11:05:28 11:07:23 12° 320° (NW) 11:09:18 437.490
DUCHIFAT 1 25 May 11:12:07 11:15:52 31° 63° (ENE) 11:19:36 145.980
AO-7 25 May 11:12:25 11:16:34 15° 0° (N) 11:20:45 29.400- 29.500
Oscar 11 25 May 11:12:34 11:16:56 75° 104° (ESE) 11:21:17 145.826/435.025
DELFI C3 25 May 11:12:35 11:16:26 40° 98° (E) 11:20:16 145.870
CUBEBUG 2 25 May 11:15:40 11:19:47 61° 289° (WNW) 11:23:53 437.445
CUTE 1.7 + AOD 2 25 May 11:19:59 11:23:32 26° 299° (WNW) 11:27:04 437.475
CUSAT 1 25 May 11:21:37 11:25:41 17° 71° (ENE) 11:30:05 437.405
ZACube-1 25 May 11:21:39 11:25:51 82° 106° (ESE) 11:30:03 437.345
UNISAT 6 25 May 11:30:54 11:35:06 45° 261° (W) 11:39:16 437.425
Oscar 19 25 May 11:32:39 11:34:23 12° 41° (NE) 11:36:06 437.125/150
HO-68 25 May 11:35:53 11:42:37 45° 304° (NW) 11:49:20 435.675
TIGRISAT 25 May 11:39:29 11:43:36 40° 262° (W) 11:47:41 435.000
BUGSAT 1 25 May 11:41:15 11:44:59 31° 62° (ENE) 11:48:41 437.445
CINEMA 3 25 May 11:46:23 11:49:06 17° 306° (NW) 11:51:47 145.822/145.860
POPSAT HIP 1 25 May 11:46:39 11:50:52 65° 70° (ENE) 11:55:05 437.405
QB50P1 25 May 11:47:19 11:51:31 67° 72° (ENE) 11:55:45 145.935-145.965
QB50P2 25 May 11:48:39 11:52:54 72° 70° (ENE) 11:57:08 145.880/145.840
AUBIESAT-1 25 May 11:49:49 11:51:52 15° 312° (NW) 11:53:52 437.475
UWE-3 25 May 11:49:58 11:53:54 42° 293° (WNW) 11:57:50 435.000/436.395/437.385
POLYITAN 1 25 May 11:51:06 11:55:20 73° 72° (ENE) 11:59:34 437.675
COMPASS 1 25 May 11:51:25 11:54:46 23° 301° (WNW) 11:58:06 437.405
HUMSAT D 25 May 11:52:35 11:56:38 49° 100° (E) 12:00:40 437.325/437.525
Cosmos 2491 25 May 11:54:33 11:56:12 11° 10° (N) 11:57:51 435.465 / 435.565
M-CUBED/EXP-1 PRIME 25 May 11:54:37 11:56:07 12° 315° (NW) 11:57:35 437.505
AAUSAT CUBESAT 2 25 May 11:56:30 11:59:55 24° 300° (WNW) 12:03:19 437.432
SO-50 25 May 11:57:04 11:59:13 13° 250° (WSW) 12:01:20 436.795
AISAT 25 May 12:01:15 12:03:05 12° 84° (E) 12:04:55 437.250
FUNcube-1 25 May 12:01:23 12:05:23 47° 292° (WNW) 12:09:25 145.935
NANOSAT C BR1 25 May 12:07:14 12:11:29 85° 251° (WSW) 12:15:45 145.865
ANTELSAT 25 May 12:13:28 12:16:47 21° 269° (W) 12:20:06 437.575/2403.000
Cosmos 2499 25 May 12:16:13 12:23:38 37° 277° (W) 12:31:25 435.465 / 435.565
PCSat 25 May 12:16:33 12:21:58 76° 128° (SE) 12:27:25 145.827
AO-85 25 May 12:18:36 12:23:07 28° 360° (N) 12:27:21 145.980
UKube-1 25 May 12:23:12 12:25:13 13° 86° (E) 12:27:13 .
O/OREOS (USA 219) 25 May 12:25:22 12:29:52 55° 307° (NW) 12:34:22 437.305
ESTCUBE 1 25 May 12:27:27 12:31:22 27° 93° (E) 12:35:15 437.505/2401.250
50 SAT 25 May 12:30:31 12:33:21 20° 92° (E) 12:36:10 437.505
JAS-2 25 May 12:31:51 12:39:05 52° 61° (ENE) 12:46:39 435.910
GONETS M04 25 May 12:32:17 12:38:27 22° 288° (WNW) 12:44:36
DANDE 25 May 12:32:41 12:37:15 23° 77° (ENE) 12:42:40 436.750
DUCHIFAT 1 25 May 12:47:31 12:51:31 40° 262° (W) 12:55:30 145.980
DELFI C3 25 May 12:47:43 12:51:12 29° 297° (WNW) 12:54:42 145.870
Oscar 11 25 May 12:49:29 12:52:39 20° 304° (WNW) 12:55:47 145.826/435.025
CUBEBUG 2 25 May 12:54:07 12:55:39 12° 310° (NW) 12:57:10 437.445
ZACube-1 25 May 12:58:55 13:01:39 17° 305° (NW) 13:04:26 437.345
CUSAT 1 25 May 12:59:39 13:06:07 60° 95° (E) 13:13:50 437.405
CUBEBUG 1 25 May 13:00:07 13:04:15 37° 97° (E) 13:08:19 437.445
VELOX 1 25 May 13:00:17 13:04:25 36° 97° (E) 13:08:30 145.980
AO-7 25 May 13:00:42 13:06:28 21° 27° (NNE) 13:12:14 29.400- 29.500
DX 1 25 May 13:03:47 13:07:47 33° 96° (E) 13:11:44 434.975-435.025
Oscar 19 25 May 13:07:37 13:12:30 42° 62° (ENE) 13:17:23 437.125/150
Gurwin Techsat 1B 25 May 13:10:53 13:15:11 26° 54° (NE) 13:19:29 435.225
BEESAT 2 25 May 13:11:05 13:13:34 16° 115° (ESE) 13:16:03 435.950
BUGSAT 1 25 May 13:16:20 13:20:18 39° 262° (W) 13:24:16 437.445
POPSAT HIP 1 25 May 13:24:00 13:27:06 19° 270° (W) 13:30:10 437.405
HO-68 25 May 13:24:26 13:28:46 17° 327° (NNW) 13:33:04 435.675
QB50P1 25 May 13:24:44 13:27:46 19° 270° (W) 13:30:47 145.935-145.965
QB50P2 25 May 13:26:18 13:29:12 18° 271° (W) 13:32:06 145.880/145.840
HUMSAT D 25 May 13:28:39 13:32:05 26° 299° (WNW) 13:35:30 437.325/437.525
POLYITAN 1 25 May 13:28:49 13:31:38 17° 271° (W) 13:34:30 437.675
AISAT 25 May 13:35:55 13:40:24 75° 104° (ESE) 13:44:48 437.250
SPROUT 25 May 13:38:43 13:42:43 37° 97° (E) 13:46:41 437.525
ITAMSAT 1 25 May 13:44:55 13:48:50 22° 52° (NE) 13:52:47 435.822/435.867
NANOSAT C BR1 25 May 13:45:51 13:47:54 13° 274° (W) 13:49:58 145.865
BEESAT 3 25 May 13:49:07 13:52:55 46° 128° (SE) 13:56:44 437.485
Cosmos 2491 25 May 13:51:07 13:57:41 22° 44° (NE) 14:04:12 435.465 / 435.565
UKube-1 25 May 13:57:38 14:02:01 81° 107° (ESE) 14:06:20 .
AO-85 25 May 13:59:59 14:04:47 39° 24° (NNE) 14:09:11 145.980
PCSat 25 May 14:00:48 14:05:51 37° 331° (NNW) 14:10:55 145.827
50 SAT 25 May 14:03:44 14:07:21 49° 291° (WNW) 14:10:57 437.505
ESTCUBE 1 25 May 14:04:00 14:08:26 50° 293° (WNW) 14:12:50 437.505/2401.250
O/OREOS (USA 219) 25 May 14:07:18 14:10:17 17° 331° (NNW) 14:13:15 437.305
TISAT 1 25 May 14:12:23 14:15:57 26° 94° (E) 14:19:28 437.305
DANDE 25 May 14:13:08 14:18:56 89° 103° (ESE) 14:26:32 436.750
JAS-2 25 May 14:16:51 14:24:07 53° 263° (W) 14:31:49 435.910
CUBEBUG 1 25 May 14:36:30 14:40:33 36° 297° (WNW) 14:44:32 437.445
VELOX 1 25 May 14:36:49 14:40:56 37° 297° (WNW) 14:45:01 145.980
DX 1 25 May 14:39:58 14:44:04 39° 296° (WNW) 14:48:08 434.975-435.025
CUSAT 1 25 May 14:42:12 14:48:39 43° 300° (WNW) 14:56:10 437.405
BEESAT 2 25 May 14:46:51 14:50:51 85° 131° (SE) 14:54:53 435.950
Oscar 19 25 May 14:46:58 14:51:53 41° 263° (W) 14:56:49 437.125/150
Gurwin Techsat 1B 25 May 14:49:22 14:54:41 76° 254° (WSW) 15:00:03 435.225
AO-7 25 May 14:49:39 14:57:28 48° 52° (NE) 15:05:21 29.400- 29.500
AIST 2 25 May 15:00:12 15:02:42 16° 115° (ESE) 15:05:13 435.215
AISAT 25 May 15:13:08 15:16:26 21° 305° (NW) 15:19:43 437.250
SPROUT 25 May 15:14:48 15:18:40 34° 297° (WNW) 15:22:30 437.525
SWISSCUBE 25 May 15:19:53 15:24:07 30° 94° (E) 15:28:19 437.505
ITAMSAT 1 25 May 15:22:34 15:27:46 87° 253° (WSW) 15:33:00 435.822/435.867
ITUPSAT 1 25 May 15:24:42 15:28:55 30° 94° (E) 15:33:08 437.325
BEESAT 3 25 May 15:26:56 15:30:43 40° 330° (NNW) 15:34:30 437.485
UKube-1 25 May 15:34:31 15:37:35 19° 306° (NW) 15:40:37 .
AO-85 25 May 15:40:42 15:45:39 71° 227° (SW) 15:50:07 145.980
ESTCUBE 1 25 May 15:42:44 15:44:18 12° 314° (NW) 15:45:51 437.505/2401.250
PCSat 25 May 15:46:17 15:50:41 24° 357° (N) 15:55:04 145.827
TISAT 1 25 May 15:47:47 15:51:49 46° 293° (WNW) 15:55:48 437.305
Cosmos 2491 25 May 15:47:55 15:56:40 64° 71° (ENE) 16:05:20 435.465 / 435.565
BEESAT 25 May 15:49:43 15:54:22 46° 99° (E) 15:58:58 436.000
DANDE 25 May 15:57:41 16:03:01 28° 311° (NW) 16:09:25 436.750
YUBILEINY 25 May 16:00:19 16:07:00 26° 75° (ENE) 16:13:42 435.215
NOAA 15 25 May 16:01:41 16:03:25 12° 39° (NE) 16:05:09 137.62
JAS-2 25 May 16:07:15 16:11:04 14° 286° (WNW) 16:15:00 435.910
HORYU 2 25 May 16:19:28 16:23:22 31° 61° (ENE) 16:27:18 437.375
BEESAT 2 25 May 16:25:35 16:29:08 29° 338° (NNW) 16:32:42 435.950
CUSAT 1 25 May 16:28:37 16:33:11 17° 326° (NW) 16:38:03 437.405
STARS 25 May 16:31:20 16:32:47 11° 84° (E) 16:34:13 437.465
Gurwin Techsat 1B 25 May 16:32:29 16:35:35 15° 276° (W) 16:38:42 435.225
AIST 2 25 May 16:36:26 16:40:35 81° 134° (SE) 16:44:45 435.215
Cosmos 2504 25 May 16:41:30 16:43:27 11° 63° (ENE) 16:45:25 435.465 / 435.565
AO-7 25 May 16:41:59 16:50:10 61° 256° (WSW) 16:58:26 29.400- 29.500
CUTE-I 25 May 16:43:07 16:46:08 16° 45° (NE) 16:49:09 437.470
HO-68 25 May 16:55:55 16:58:28 12° 20° (NNE) 17:01:01 435.675
SWISSCUBE 25 May 16:57:30 17:02:09 50° 294° (WNW) 17:06:47 437.505
RS-15 25 May 17:00:27 17:07:20 18° 93° (E) 17:14:23 29.354- 29.394
ITUPSAT 1 25 May 17:02:21 17:07:01 51° 294° (WNW) 17:11:39 437.325
ITAMSAT 1 25 May 17:04:39 17:08:02 17° 273° (W) 17:11:26 435.822/435.867
BEESAT 3 25 May 17:06:12 17:09:18 21° 352° (N) 17:12:25 437.485
LilacSat-2 25 May 17:08:35 17:09:43 11° 52° (NE) 17:10:52 437.200
NOAA 18 25 May 17:13:19 17:17:52 28° 54° (NE) 17:22:25 137.9125
BRITE-PL 25 May 17:15:54 17:20:26 25° 55° (NE) 17:24:57 437.365/2234.400
MOZHAYETS 4 25 May 17:21:47 17:26:13 42° 98° (E) 17:30:37
AO-85 25 May 17:22:33 17:25:13 15° 250° (WSW) 17:27:46 145.980
KKS-1 25 May 17:23:32 17:27:54 53° 101° (E) 17:32:14 437.445
BEESAT 25 May 17:27:46 17:32:03 33° 299° (WNW) 17:36:20 436.000
PCSat 25 May 17:30:48 17:35:39 31° 22° (NNE) 17:40:27 145.827
O/OREOS (USA 219) 25 May 17:30:55 17:33:10 13° 22° (NNE) 17:35:26 437.305
Cubesat XI-IV 25 May 17:33:52 17:38:25 30° 56° (ENE) 17:42:59 437.490
NOAA 15 25 May 17:36:59 17:41:55 40° 61° (ENE) 17:46:53 137.62
Cosmos 2491 25 May 17:45:12 17:53:13 42° 276° (W) 18:01:09 435.465 / 435.565
DANDE 25 May 17:46:22 17:48:58 12° 338° (NNW) 17:51:43 436.750
GOMX 1 25 May 17:52:40 17:57:02 25° 56° (ENE) 18:01:18 467.674
YUBILEINY 25 May 17:53:56 18:02:39 86° 99° (E) 18:11:25 435.215
HORYU 2 25 May 17:55:38 17:59:51 43° 261° (W) 18:04:06 437.375
AUBIESAT-1 25 May 18:02:23 18:02:38 10° 43° (NE) 18:02:54 437.475
BEESAT 2 25 May 18:04:57 18:08:02 21° 1° (N) 18:11:08 435.950
M-CUBED/EXP-1 PRIME 25 May 18:05:28 18:07:09 12° 45° (NE) 18:08:47 437.505
STARS 25 May 18:05:36 18:10:00 71° 105° (ESE) 18:14:21 437.465
AIST 2 25 May 18:15:44 18:19:29 31° 337° (NNW) 18:23:14 435.215
CUTE-I 25 May 18:20:01 18:25:13 58° 66° (ENE) 18:30:27 437.470
Cosmos 2504 25 May 18:27:49 18:34:41 47° 88° (E) 18:41:58 435.465 / 435.565
SWISSCUBE 25 May 18:37:02 18:38:58 12° 315° (NW) 18:40:54 437.505
HO-68 25 May 18:38:10 18:43:59 28° 45° (NE) 18:49:49 435.675
LilacSat-2 25 May 18:39:34 18:43:20 66° 71° (ENE) 18:47:07 437.200
AO-7 25 May 18:39:54 18:44:51 17° 279° (W) 18:49:49 29.400- 29.500
CUBESAT XI-V 25 May 18:40:50 18:45:13 36° 95° (E) 18:49:33 437.345
ITUPSAT 1 25 May 18:41:53 18:43:53 13° 315° (NW) 18:45:52 437.325
CANX-2 25 May 18:43:10 18:44:39 12° 49° (NE) 18:46:08 2200.000
BEESAT 3 25 May 18:44:48 18:48:07 25° 16° (NNE) 18:51:26 437.485
DOVE 4 25 May 18:52:34 18:57:14 35° 63° (ENE) 19:01:43 437.250
BRITE-PL 25 May 18:52:38 18:58:20 85° 255° (WSW) 19:04:05 437.365/2234.400
NOAA 18 25 May 18:52:41 18:58:08 72° 254° (WSW) 19:03:38 137.9125
MOZHAYETS 4 25 May 18:59:10 19:03:20 34° 297° (WNW) 19:07:29
KKS-1 25 May 19:00:31 19:04:16 27° 301° (WNW) 19:08:00 437.445
RS-15 25 May 19:05:49 19:16:53 58° 120° (ESE) 19:28:33 29.354- 29.394
CUTE 1.7 + AOD 2 25 May 19:09:26 19:12:05 16° 54° (NE) 19:14:45 437.475
O/OREOS (USA 219) 25 May 19:09:42 19:13:55 37° 46° (NE) 19:18:05 437.305
Cubesat XI-IV 25 May 19:12:56 19:18:12 64° 257° (WSW) 19:23:32 437.490
PCSat 25 May 19:14:21 19:19:50 78° 46° (NE) 19:25:16 145.827
NOAA 15 25 May 19:16:38 19:21:42 44° 261° (W) 19:26:49 137.62
GOMX 1 25 May 19:29:09 19:34:39 80° 256° (WSW) 19:40:02 467.674
AUBIESAT-1 25 May 19:32:35 19:36:27 47° 61° (ENE) 19:40:04 437.475
M-CUBED/EXP-1 PRIME 25 May 19:37:05 19:41:08 62° 64° (ENE) 19:44:54 437.505
COMPASS 1 25 May 19:39:12 19:41:56 17° 55° (NE) 19:44:41 437.405
CINEMA 3 25 May 19:40:06 19:44:12 31° 62° (ENE) 19:48:10 145.822/145.860
STARS 25 May 19:42:39 19:45:57 21° 304° (NW) 19:49:14 437.465
BEESAT 2 25 May 19:43:17 19:46:56 32° 25° (NNE) 19:50:33 435.950
AAUSAT CUBESAT 2 25 May 19:44:08 19:46:43 16° 54° (NE) 19:49:19 437.432
UWE-3 25 May 19:44:34 19:45:51 11° 49° (NE) 19:47:08 435.000/436.395/437.385
Cosmos 2491 25 May 19:46:04 19:47:27 10° 301° (WNW) 19:48:49 435.465 / 435.565
YUBILEINY 25 May 19:53:02 20:00:38 32° 305° (NW) 20:08:16 435.215
AIST 2 25 May 19:55:45 19:59:02 22° 1° (N) 20:02:19 435.215
CUTE-I 25 May 20:00:59 20:05:37 30° 267° (W) 20:10:17 437.470
CUSAT 1 25 May 20:02:40 20:05:35 12° 22° (NNE) 20:08:29 437.405
CANX-2 25 May 20:15:33 20:19:41 58° 70° (ENE) 20:23:52 2200.000
LilacSat-2 25 May 20:15:39 20:18:05 16° 271° (W) 20:20:30 437.200
CUBESAT XI-V 25 May 20:18:14 20:22:41 41° 295° (WNW) 20:27:06 437.345
Cosmos 2504 25 May 20:21:04 20:28:07 49° 293° (WNW) 20:35:39 435.465 / 435.565
BEESAT 3 25 May 20:22:30 20:26:28 64° 38° (NE) 20:30:25 437.485
SEEDS 25 May 20:22:50 20:26:50 47° 68° (ENE) 20:30:53 437.485
HO-68 25 May 20:23:45 20:30:55 83° 68° (ENE) 20:38:07 435.675
DOVE 4 25 May 20:29:47 20:34:50 48° 261° (W) 20:39:42 437.250
BRITE-PL 25 May 20:33:34 20:37:36 20° 275° (W) 20:41:39 437.365/2234.400
DELFI C3 25 May 20:33:35 20:35:03 12° 51° (NE) 20:36:32 145.870
NOAA 18 25 May 20:36:45 20:39:49 15° 276° (W) 20:42:53 137.9125
Oscar 11 25 May 20:39:15 20:42:40 24° 59° (ENE) 20:46:08 145.826/435.025
STRAND 1 25 May 20:43:04 20:48:01 45° 99° (E) 20:52:57 437.568
CUTE 1.7 + AOD 2 25 May 20:43:09 20:47:22 90° 133° (SE) 20:51:38 437.475
CUBEBUG 2 25 May 20:44:20 20:48:23 39° 66° (ENE) 20:52:22 437.445
ZACube-1 25 May 20:49:08 20:52:35 25° 60° (ENE) 20:55:59 437.345
O/OREOS (USA 219) 25 May 20:49:09 20:53:25 43° 248° (WSW) 20:57:39 437.305
Cubesat XI-IV 25 May 20:57:07 20:59:23 13° 278° (W) 21:01:40 437.490
PCSat 25 May 20:58:16 21:02:47 27° 247° (WSW) 21:07:16 145.827
AUBIESAT-1 25 May 21:07:48 21:11:08 24° 259° (WSW) 21:14:18 437.475
GOMX 1 25 May 21:10:01 21:13:31 17° 276° (W) 21:17:00 467.674
AIST 1 25 May 21:11:55 21:14:00 13° 80° (E) 21:16:04
COMPASS 1 25 May 21:12:50 21:16:59 83° 253° (WSW) 21:21:12 437.405
M-CUBED/EXP-1 PRIME 25 May 21:12:59 21:16:00 20° 261° (W) 21:18:53 437.505
CINEMA 3 25 May 21:16:42 21:21:15 47° 261° (W) 21:25:38 145.822/145.860
HUMSAT D 25 May 21:17:19 21:19:42 15° 54° (NE) 21:22:06 437.325/437.525
UWE-3 25 May 21:17:19 21:21:31 56° 69° (ENE) 21:25:39 435.000/436.395/437.385
AAUSAT CUBESAT 2 25 May 21:17:31 21:21:40 89° 251° (WSW) 21:25:52 437.432
RS-15 25 May 21:17:37 21:29:18 71° 329° (NNW) 21:41:36 29.354- 29.394
PRISM 25 May 21:17:57 21:21:10 21° 91° (E) 21:24:21 437.425
DANDE 25 May 21:18:02 21:22:55 17° 34° (NE) 21:27:54 436.750
BEESAT 2 25 May 21:21:07 21:25:08 74° 225° (SW) 21:29:06 435.950
Cosmos 2499 25 May 21:23:42 21:24:37 10° 61° (ENE) 21:25:34 435.465 / 435.565
FUNcube-1 25 May 21:27:40 21:31:42 47° 68° (ENE) 21:35:43 145.935
AIST 2 25 May 21:34:48 21:38:35 32° 24° (NNE) 21:42:22 435.215
CUSAT 1 25 May 21:44:16 21:50:55 27° 48° (NE) 21:57:08 437.405
GONETS M04 25 May 21:49:27 21:56:36 29° 78° (ENE) 22:03:44
CANX-2 25 May 21:52:40 21:55:54 21° 270° (W) 21:59:11 2200.000
YUBILEINY 25 May 21:57:33 22:01:10 13° 336° (NNW) 22:04:48 435.215
CUBESAT XI-V 25 May 21:58:48 21:58:56 10° 317° (NW) 21:59:04 437.345
SEEDS 25 May 21:59:15 22:02:47 26° 268° (W) 22:06:19 437.485
ESTCUBE 1 25 May 22:00:08 22:02:10 13° 48° (NE) 22:04:11 437.505/2401.250
BEESAT 3 25 May 22:00:37 22:03:54 25° 239° (WSW) 22:07:10 437.485
DELFI C3 25 May 22:05:15 22:09:11 64° 71° (ENE) 22:13:10 145.870
HO-68 25 May 22:13:32 22:19:29 28° 270° (W) 22:25:27 435.675
Oscar 11 25 May 22:14:16 22:18:31 59° 259° (WSW) 22:22:49 145.826/435.025
Cosmos 2504 25 May 22:19:25 22:23:54 16° 322° (NW) 22:28:34 435.465 / 435.565
CUBEBUG 2 25 May 22:21:14 22:25:07 31° 265° (W) 22:28:58 437.445
CUTE 1.7 + AOD 2 25 May 22:21:39 22:23:54 14° 275° (W) 22:26:08 437.475
STRAND 1 25 May 22:22:27 22:27:11 38° 299° (WNW) 22:31:53 437.568
ZACube-1 25 May 22:24:32 22:28:40 52° 260° (W) 22:32:46 437.345
CUBEBUG 1 25 May 22:28:56 22:31:32 15° 51° (NE) 22:34:08 437.445
VELOX 1 25 May 22:30:14 22:32:55 16° 51° (NE) 22:35:38 145.980
DX 1 25 May 22:32:22 22:34:48 15° 50° (NE) 22:37:15 434.975-435.025
AIST 1 25 May 22:46:27 22:50:53 84° 99° (E) 22:55:19
HUMSAT D 25 May 22:50:41 22:54:47 87° 73° (ENE) 22:58:53 437.325/437.525
COMPASS 1 25 May 22:51:27 22:53:17 13° 275° (W) 22:55:07 437.405
PRISM 25 May 22:52:42 22:56:51 59° 291° (WNW) 23:00:57 437.425
UWE-3 25 May 22:54:59 22:58:19 22° 269° (W) 23:01:38 435.000/436.395/437.385
AAUSAT CUBESAT 2 25 May 22:55:44 22:57:49 14° 274° (W) 22:59:56 437.432
BEESAT 2 25 May 23:00:16 23:02:19 14° 246° (WSW) 23:04:21 435.950
DANDE 25 May 23:00:33 23:08:15 41° 59° (ENE) 23:15:57 436.750
AISAT 25 May 23:04:36 23:08:25 28° 59° (ENE) 23:12:13 437.250
FUNcube-1 25 May 23:04:42 23:08:12 25° 267° (W) 23:11:41 145.935
SPROUT 25 May 23:05:43 23:07:59 14° 51° (NE) 23:10:15 437.525
Cosmos 2499 25 May 23:08:35 23:15:24 44° 86° (E) 23:22:44 435.465 / 435.565
AIST 2 25 May 23:13:16 23:17:26 76° 227° (SW) 23:21:35 435.215
UNISAT 6 25 May 23:15:19 23:18:40 22° 91° (E) 23:22:02 437.425
50 SAT 25 May 23:15:33 23:18:42 28° 63° (ENE) 23:21:54 437.505
TIGRISAT 25 May 23:23:29 23:27:00 24° 92° (E) 23:30:32 435.000
UKube-1 25 May 23:23:48 23:27:31 28° 60° (ENE) 23:31:16 .
CUSAT 1 25 May 23:26:20 23:34:30 75° 73° (ENE) 23:41:43 437.405
RS-15 25 May 23:32:08 23:43:50 55° 1° (N) 23:55:56 29.354- 29.394
ISS 25 May 23:33:01 23:34:29 13° 145° (SE) 23:35:58 145.825
ESTCUBE 1 25 May 23:33:39 23:38:06 58° 68° (ENE) 23:42:35 437.505/2401.250
TISAT 1 25 May 23:39:01 23:39:55 11° 47° (NE) 23:40:50 437.305
DELFI C3 25 May 23:41:45 23:44:29 18° 271° (W) 23:47:14 145.870
GONETS M04 25 May 23:43:39 23:52:29 86° 281° (WNW) 00:01:19
ANTELSAT 25 May 23:56:10 00:00:20 47° 100° (E) 00:04:31 437.575/2403.000
YUBILEINY 26 May 00:01:57 00:03:28 10° 12° (NNE) 00:05:01 435.215
CUBEBUG 1 26 May 00:02:42 00:07:08 75° 71° (ENE) 00:11:35 437.445
STRAND 1 26 May 00:04:10 00:05:04 10° 321° (NW) 00:05:59 437.568
VELOX 1 26 May 00:04:16 00:08:45 77° 71° (ENE) 00:13:14 145.980
DX 1 26 May 00:05:55 00:10:18 72° 70° (ENE) 00:14:42 434.975-435.025
DUCHIFAT 1 26 May 00:24:36 00:27:46 20° 91° (E) 00:30:53 145.980
AIST 1 26 May 00:26:10 00:29:07 17° 302° (WNW) 00:32:06
HUMSAT D 26 May 00:28:55 00:31:02 14° 274° (W) 00:33:10 437.325/437.525
PRISM 26 May 00:29:45 00:31:21 12° 311° (NW) 00:32:58 437.425
SPROUT 26 May 00:38:58 00:43:15 72° 72° (ENE) 00:47:33 437.525
AISAT 26 May 00:40:19 00:44:42 52° 259° (W) 00:49:06 437.250
DANDE 26 May 00:43:28 00:51:48 74° 261° (W) 00:59:56 436.750
50 SAT 26 May 00:49:03 00:52:23 34° 263° (W) 00:55:48 437.505
BUGSAT 1 26 May 00:51:18 00:54:12 19° 90° (E) 00:57:04 437.445
UNISAT 6 26 May 00:51:32 00:55:45 57° 291° (WNW) 00:59:59 437.425
AIST 2 26 May 00:52:57 00:55:17 15° 246° (WSW) 00:57:36 435.215
SWISSCUBE 26 May 00:57:53 01:00:53 17° 50° (NE) 01:03:52 437.505
UKube-1 26 May 00:59:13 01:03:25 48° 260° (W) 01:07:39 .
TIGRISAT 26 May 00:59:51 01:03:59 51° 292° (WNW) 01:08:09 435.000
POPSAT HIP 1 26 May 00:59:55 01:03:57 43° 99° (E) 01:07:58 437.405
QB50P1 26 May 01:00:30 01:04:34 44° 99° (E) 01:08:36 145.935-145.965
Cosmos 2499 26 May 01:01:13 01:08:24 54° 291° (WNW) 01:16:14 435.465 / 435.565
QB50P2 26 May 01:02:04 01:06:11 48° 100° (E) 01:10:16 145.880/145.840
ITUPSAT 1 26 May 01:02:57 01:05:57 17° 50° (NE) 01:08:57 437.325
POLYITAN 1 26 May 01:04:31 01:08:38 49° 100° (E) 01:12:42 437.675
ISS 26 May 01:07:16 01:10:14 33° 164° (SSE) 01:13:13 145.825
CUSAT 1 26 May 01:09:02 01:16:03 35° 276° (W) 01:22:23 437.405
TISAT 1 26 May 01:10:35 01:14:41 50° 68° (ENE) 01:18:48 437.305
ESTCUBE 1 26 May 01:11:36 01:15:16 24° 269° (W) 01:18:58 437.505/2401.250
JAS-2 26 May 01:19:02 01:25:15 26° 84° (E) 01:31:02 435.910
NANOSAT C BR1 26 May 01:20:03 01:24:14 65° 102° (ESE) 01:28:24 145.865
BEESAT 26 May 01:26:48 01:30:34 24° 56° (NE) 01:34:21 436.000
ANTELSAT 26 May 01:33:16 01:36:55 28° 299° (WNW) 01:40:33 437.575/2403.000
CUBEBUG 1 26 May 01:40:53 01:43:57 18° 271° (W) 01:47:03 437.445
VELOX 1 26 May 01:42:43 01:45:45 18° 271° (W) 01:48:49 145.980
GONETS M04 26 May 01:43:16 01:50:42 30° 308° (NW) 01:58:10
DX 1 26 May 01:43:53 01:46:59 19° 270° (W) 01:50:07 434.975-435.025
RS-15 26 May 01:46:09 01:58:21 73° 32° (NNE) 02:10:45 29.354- 29.394
YUBILEINY 26 May 01:58:13 02:04:50 23° 45° (NE) 02:11:27 435.215
DUCHIFAT 1 26 May 01:59:42 02:03:50 60° 290° (WNW) 02:07:57 145.980
SO-50 26 May 02:15:26 02:19:57 38° 124° (SE) 02:24:28 436.795
SPROUT 26 May 02:16:44 02:19:42 18° 271° (W) 02:22:40 437.525
Cosmos 2504 26 May 02:17:16 02:20:19 12° 29° (NNE) 02:23:27 435.465 / 435.565
BUGSAT 1 26 May 02:25:57 02:30:01 63° 289° (WNW) 02:33:59 437.445
DANDE 26 May 02:27:19 02:33:30 24° 283° (WNW) 02:39:36 436.750
UNISAT 6 26 May 02:30:07 02:31:40 12° 311° (NW) 02:33:12 437.425
SWISSCUBE 26 May 02:33:13 02:37:58 75° 71° (ENE) 02:42:45 437.505
POPSAT HIP 1 26 May 02:35:59 02:39:38 29° 299° (WNW) 02:43:16 437.405
QB50P1 26 May 02:36:36 02:40:14 28° 299° (WNW) 02:43:50 145.935-145.965
QB50P2 26 May 02:38:15 02:41:50 27° 299° (WNW) 02:45:21 145.880/145.840
ITUPSAT 1 26 May 02:38:19 02:43:04 75° 71° (ENE) 02:47:52 437.325
TIGRISAT 26 May 02:38:51 02:39:48 11° 313° (NW) 02:40:46 435.000
POLYITAN 1 26 May 02:40:44 02:44:15 26° 300° (WNW) 02:47:46 437.675
ISS 26 May 02:43:13 02:46:20 43° 184° (S) 02:49:28 145.825
TISAT 1 26 May 02:47:08 02:50:37 24° 267° (W) 02:54:06 437.305
Oscar 19 26 May 02:50:37 02:55:34 42° 98° (E) 03:00:26 437.125/150
KKS-1 26 May 02:53:18 02:56:43 22° 56° (NE) 03:00:09 437.445
MOZHAYETS 4 26 May 02:55:26 02:58:33 18° 53° (NE) 03:01:39
NANOSAT C BR1 26 May 02:56:27 02:59:38 21° 303° (WNW) 03:02:48 145.865
Gurwin Techsat 1B 26 May 02:58:25 03:02:50 26° 91° (E) 03:07:14 435.225
Cosmos 2499 26 May 02:58:51 03:03:48 18° 320° (NW) 03:09:01 435.465 / 435.565
BEESAT 26 May 03:03:14 03:07:58 71° 256° (WSW) 03:12:46 436.000
JAS-2 26 May 03:03:31 03:11:22 88° 105° (ESE) 03:18:29 435.910
Cosmos 2491 26 May 03:07:13 03:11:42 15° 65° (ENE) 03:16:12 435.465 / 435.565
ITAMSAT 1 26 May 03:28:35 03:32:24 20° 88° (E) 03:36:12 435.822/435.867
STARS 26 May 03:33:44 03:37:25 27° 59° (ENE) 03:41:06 437.465
DUCHIFAT 1 26 May 03:37:10 03:38:45 12° 311° (NW) 03:40:20 145.980
GONETS M04 26 May 03:48:18 03:51:30 12° 339° (NNW) 03:54:42
YUBILEINY 26 May 03:54:57 04:03:40 66° 72° (ENE) 04:12:24 435.215
SO-50 26 May 03:55:29 04:00:21 60° 325° (NW) 04:05:11 436.795
RS-15 26 May 03:59:00 04:10:47 58° 241° (WSW) 04:22:39 29.354- 29.394
BUGSAT 1 26 May 04:03:03 04:04:37 12° 310° (NW) 04:06:11 437.445
Cosmos 2504 26 May 04:09:42 04:16:55 33° 58° (ENE) 04:24:31 435.465 / 435.565
SWISSCUBE 26 May 04:12:50 04:16:19 20° 271° (W) 04:19:50 437.505
CUBESAT XI-V 26 May 04:16:00 04:18:56 17° 51° (NE) 04:21:51 437.345
ITUPSAT 1 26 May 04:17:58 04:21:28 20° 271° (W) 04:25:00 437.325
ISS 26 May 04:19:37 04:22:22 25° 203° (SSW) 04:25:07 145.825
KKS-1 26 May 04:28:26 04:32:55 71° 257° (WSW) 04:37:24 437.445
Oscar 19 26 May 04:30:05 04:34:54 40° 298° (WNW) 04:39:41 437.125/150
MOZHAYETS 4 26 May 04:30:34 04:35:08 90° 61° (ENE) 04:39:46
AO-7 26 May 04:35:06 04:42:25 32° 92° (E) 04:49:43 29.400- 29.500
Gurwin Techsat 1B 26 May 04:37:58 04:43:16 67° 291° (WNW) 04:48:33 435.225
BEESAT 26 May 04:44:37 04:46:41 13° 276° (W) 04:48:45 436.000
JAS-2 26 May 04:48:59 04:55:36 32° 310° (NW) 05:01:49 435.910
Cosmos 2491 26 May 04:57:59 05:06:29 55° 90° (E) 05:15:00 435.465 / 435.565
ITAMSAT 1 26 May 05:07:17 05:12:32 83° 290° (WNW) 05:17:47 435.822/435.867
STARS 26 May 05:09:14 05:13:33 53° 259° (WSW) 05:17:54 437.465
SO-50 26 May 05:37:22 05:41:40 30° 348° (NNW) 05:45:55 436.795
HORYU 2 26 May 05:39:22 05:42:48 22° 91° (E) 05:46:14 437.375
CUBESAT XI-V 26 May 05:50:55 05:55:36 76° 71° (ENE) 06:00:20 437.345
GONETS M04 26 May 05:51:41 05:53:52 11° 15° (NNE) 05:56:03
YUBILEINY 26 May 05:52:14 06:00:07 40° 276° (W) 06:08:01 435.215
Cosmos 2504 26 May 06:03:02 06:11:15 83° 261° (W) 06:19:58 435.465 / 435.565
KKS-1 26 May 06:08:42 06:10:20 12° 276° (W) 06:11:58 437.445
MOZHAYETS 4 26 May 06:10:17 06:13:00 16° 274° (W) 06:15:46
Oscar 19 26 May 06:11:34 06:12:58 11° 320° (NW) 06:14:22 437.125/150
RS-15 26 May 06:13:04 06:20:29 19° 266° (W) 06:27:56 29.354- 29.394
Gurwin Techsat 1B 26 May 06:19:00 06:22:22 17° 313° (NW) 06:25:45 435.225
